Marfa, TX

2:36 AM CDT on August 18, 2017 (GMT -0500)
Marfa Municipal

Weather History for KMRF - June, 2013

Change the Weather History Date:

Tuesday, June 4, 2013

  Actual Average Record
Temperature  
Mean Temperature 78 °F -  
Max Temperature 96 °F 85 °F 100 °F (2014)
Min Temperature 60 °F 55 °F 46 °F (2005)
Cooling Degree Days 13    
Growing Degree Days 28 (Base 50)    
Moisture  
Dew Point 50 °F    
Average Humidity 47    
Maximum Humidity 88    
Minimum Humidity 12    
Precipitation  
Precipitation 0.00 in - - ()
Sea Level Pressure  
Sea Level Pressure 30.06 in    
Wind  
Wind Speed 5 mph (West)    
Max Wind Speed 16 mph    
Max Gust Speed 33 mph    
Visibility 10 miles    
Events      
Averages and records for this station are not official NWS values.
T = Trace of Precipitation, MM = Missing Value Source: NWS Daily Summary

Daily Weather History Graph

Daily Weather History Graph

Search for Another Location

Airport or City:

Trip Planner

Search our weather history database for the weather conditions in past years. The results will help you decide how hot, cold, wet, or windy it might be!

Date:

Astronomy

Jun. 04, 2013 Rise Set
Actual Time 6:53 AM CDT 8:55 PM CDT
Civil Twilight 6:26 AM CDT 9:22 PM CDT
Nautical Twilight 5:53 AM CDT 9:55 PM CDT
Astronomical Twilight 5:18 AM CDT 10:31 PM CDT
Moon 4:11 AM CDT (6/4) 5:37 PM CDT (6/4)
Length of Visible Light 14h 55m
Length of Day
14h 01m
Waning Crescent, 14% of the Moon is Illuminated
Jun 4
Waning Crescent
Jun 8
New
Jun 16
First Quarter
Jun 23
Full
Jun 29
Last Quarter

Hourly Weather History & Observations

Time (CDT) Temp. Heat Index Dew Point Humidity Pressure Visibility Wind Dir Wind Speed Gust Speed Precip Events Conditions
12:15 AM 68.0 °F - 57.2 °F 68% 30.07 in 10.0 mi Calm Calm - N/A   Clear
12:35 AM 66.2 °F - 57.2 °F 73% 30.07 in 10.0 mi Calm Calm - N/A   Clear
12:55 AM 66.2 °F - 57.2 °F 73% 30.07 in 10.0 mi Calm Calm - N/A   Clear
1:15 AM 68.0 °F - 55.4 °F 64% 30.07 in 10.0 mi West 3.5 mph - N/A   Clear
1:35 AM 64.4 °F - 57.2 °F 77% 30.07 in 10.0 mi WNW 3.5 mph - N/A   Clear
1:55 AM 64.4 °F - 57.2 °F 77% 30.07 in 10.0 mi NW 3.5 mph - N/A   Clear
2:15 AM 64.4 °F - 57.2 °F 77% 30.06 in 10.0 mi Calm Calm - N/A   Clear
2:35 AM 64.4 °F - 57.2 °F 77% 30.06 in 10.0 mi Calm Calm - N/A   Clear
2:55 AM 62.6 °F - 57.2 °F 82% 30.06 in 10.0 mi NW 4.6 mph - N/A   Clear
3:15 AM 62.6 °F - 57.2 °F 82% 30.06 in 10.0 mi NNW 4.6 mph - N/A   Clear
3:35 AM 62.6 °F - 57.2 °F 82% 30.06 in 10.0 mi North 4.6 mph - N/A   Clear
3:55 AM 62.6 °F - 57.2 °F 82% 30.06 in 10.0 mi North 4.6 mph - N/A   Clear
4:15 AM 62.6 °F - 57.2 °F 82% 30.06 in 10.0 mi Calm Calm - N/A   Clear
4:35 AM 62.6 °F - 57.2 °F 82% 30.06 in 10.0 mi NE 3.5 mph - N/A   Clear
4:55 AM 60.8 °F - 57.2 °F 88% 30.05 in 10.0 mi NNE 4.6 mph - N/A   Clear
5:15 AM 62.6 °F - 57.2 °F 82% 30.06 in 10.0 mi North 6.9 mph - N/A   Clear
5:35 AM 62.6 °F - 57.2 °F 82% 30.06 in 10.0 mi NNE 5.8 mph - N/A   Clear
5:55 AM 60.8 °F - 57.2 °F 88% 30.06 in 10.0 mi NNE 6.9 mph - N/A   Clear
6:15 AM 60.8 °F - 57.2 °F 88% 30.06 in 10.0 mi NNE 5.8 mph - N/A   Clear
6:35 AM 60.8 °F - 57.2 °F 88% 30.06 in 10.0 mi NNE 6.9 mph - N/A   Clear
6:55 AM 60.8 °F - 57.2 °F 88% 30.06 in 10.0 mi North 6.9 mph - N/A   Clear
7:15 AM 60.8 °F - 57.2 °F 88% 30.07 in 10.0 mi Calm Calm - N/A   Clear
7:35 AM 62.6 °F - 57.2 °F 82% 30.08 in 10.0 mi NW 4.6 mph - N/A   Clear
7:55 AM 62.6 °F - 59.0 °F 88% 30.08 in 10.0 mi North 3.5 mph - N/A   Clear
8:15 AM 66.2 °F - 60.8 °F 83% 30.09 in 10.0 mi North 3.5 mph - N/A   Clear
8:35 AM 69.8 °F - 57.2 °F 64% 30.09 in 10.0 mi Calm Calm - N/A   Clear
8:55 AM 71.6 °F - 60.8 °F 69% 30.10 in 10.0 mi Calm Calm - N/A   Clear
9:15 AM 73.4 °F - 59.0 °F 61% 30.10 in 10.0 mi Calm Calm - N/A   Clear
9:35 AM 75.2 °F - 57.2 °F 53% 30.10 in 10.0 mi Calm Calm - N/A   Clear
9:55 AM 75.2 °F - 57.2 °F 53% 30.10 in 10.0 mi SW 4.6 mph - N/A   Clear
10:15 AM 77.0 °F - 57.2 °F 50% 30.10 in 10.0 mi SSW 3.5 mph - N/A   Clear
10:35 AM 78.8 °F - 57.2 °F 47% 30.10 in 10.0 mi South 5.8 mph - N/A   Clear
10:55 AM 80.6 °F 80.5 °F 55.4 °F 42% 30.10 in 10.0 mi SW 6.9 mph - N/A   Clear
11:15 AM 82.4 °F 81.7 °F 55.4 °F 39% 30.10 in 10.0 mi West 9.2 mph - N/A   Clear
11:35 AM 84.2 °F 83.0 °F 55.4 °F 37% 30.09 in 10.0 mi SW 8.1 mph - N/A   Clear
11:55 AM 87.8 °F 85.7 °F 53.6 °F 31% 30.09 in 10.0 mi West 8.1 mph - N/A   Clear
12:15 PM 87.8 °F 85.7 °F 53.6 °F 31% 30.09 in 10.0 mi NNW 4.6 mph - N/A   Clear
12:35 PM 89.6 °F - 51.8 °F 27% 30.09 in 10.0 mi WNW 5.8 mph - N/A   Clear
12:55 PM 89.6 °F - 50.0 °F 26% 30.08 in 10.0 mi WSW 4.6 mph - N/A   Clear
1:15 PM 91.4 °F - 48.2 °F 23% 30.08 in 10.0 mi SW 9.2 mph - N/A   Clear
1:35 PM 91.4 °F - 46.4 °F 21% 30.07 in 10.0 mi WSW 12.7 mph - N/A   Partly Cloudy
1:55 PM 93.2 °F - 44.6 °F 19% 30.07 in 10.0 mi SSW 9.2 mph 16.1 mph N/A   Partly Cloudy
2:15 PM 91.4 °F - 42.8 °F 18% 30.06 in 10.0 mi WSW 9.2 mph 21.9 mph N/A   Scattered Clouds
2:35 PM 93.2 °F - 44.6 °F 19% 30.05 in 10.0 mi SW 13.8 mph 20.7 mph N/A   Clear
2:55 PM 93.2 °F - 44.6 °F 19% 30.05 in 10.0 mi WNW 10.4 mph - N/A   Partly Cloudy
3:15 PM 93.2 °F - 44.6 °F 19% 30.05 in 10.0 mi West 10.4 mph 24.2 mph N/A   Scattered Clouds
3:35 PM 93.2 °F - 41.0 °F 16% 30.04 in 10.0 mi SW 13.8 mph 17.3 mph N/A   Scattered Clouds
3:55 PM 93.2 °F - 41.0 °F 16% 30.04 in 10.0 mi WNW 5.8 mph - N/A   Scattered Clouds
4:15 PM 93.2 °F - 41.0 °F 16% 30.03 in 10.0 mi SW 13.8 mph 17.3 mph N/A   Scattered Clouds
4:35 PM 91.4 °F - 42.8 °F 18% 30.03 in 10.0 mi South 11.5 mph - N/A   Partly Cloudy
4:55 PM 91.4 °F - 42.8 °F 18% 30.02 in 10.0 mi SE 4.6 mph - N/A   Clear
5:15 PM 91.4 °F - 41.0 °F 17% 30.02 in 10.0 mi South 6.9 mph - N/A   Clear
5:35 PM 96.8 °F - 39.2 °F 14% 30.01 in 10.0 mi West 13.8 mph 33.4 mph N/A   Clear
5:55 PM 93.2 °F - 35.6 °F 13% 30.01 in 10.0 mi South 10.4 mph - N/A   Clear
6:15 PM 91.4 °F - 37.4 °F 15% 30.00 in 10.0 mi South 6.9 mph - N/A   Clear
6:35 PM 91.4 °F - 42.8 °F 18% 30.00 in 10.0 mi SW 13.8 mph - N/A   Clear
6:55 PM 93.2 °F - 35.6 °F 13% 29.99 in 10.0 mi WSW 6.9 mph - N/A   Clear
7:15 PM 93.2 °F - 35.6 °F 13% 30.00 in 10.0 mi West 12.7 mph 17.3 mph N/A   Clear
7:35 PM 93.2 °F - 33.8 °F 12% 30.00 in 10.0 mi West 6.9 mph - N/A   Clear
7:55 PM 91.4 °F - 32.0 °F 12% 30.01 in 10.0 mi West 8.1 mph - N/A   Clear
8:15 PM 91.4 °F - 32.0 °F 12% 30.01 in 10.0 mi WSW 5.8 mph - N/A   Clear
8:35 PM 89.6 °F - 32.0 °F 13% 30.01 in 10.0 mi WNW 6.9 mph - N/A   Clear
8:55 PM 84.2 °F - 39.2 °F 20% 30.03 in 10.0 mi ESE 13.8 mph 20.7 mph N/A   Clear
9:15 PM 80.6 °F - 44.6 °F 28% 30.04 in 10.0 mi East 16.1 mph 24.2 mph N/A   Clear
9:35 PM 78.8 °F - 44.6 °F 30% 30.04 in 10.0 mi ESE 15.0 mph - N/A   Clear
9:55 PM 77.0 °F - 46.4 °F 34% 30.05 in 10.0 mi SE 15.0 mph 19.6 mph N/A   Clear
10:15 PM 75.2 °F - 46.4 °F 36% 30.06 in 10.0 mi ESE 10.4 mph - N/A   Clear
10:35 PM 73.4 °F - 48.2 °F 41% 30.06 in 10.0 mi SE 4.6 mph - N/A   Clear
10:55 PM 73.4 °F - 46.4 °F 38% 30.07 in 10.0 mi SSW 6.9 mph - N/A   Clear
11:15 PM 73.4 °F - 48.2 °F 41% 30.07 in 10.0 mi South 4.6 mph - N/A   Clear
11:35 PM 71.6 °F - 48.2 °F 43% 30.08 in 10.0 mi West 3.5 mph - N/A   Clear
11:55 PM 69.8 °F - 48.2 °F 46% 30.08 in 10.0 mi Calm Calm - N/A   Clear